Wind_Speed
11 11 11 11 12 12 12 12 12 12 12 12 12 11 11 12 12 12 12 12 13 14 14 14 13 13 12 13 12 11 11 11 10 10 11 12 12 13 13 13 14 14 15
11 12 12 12 13 14 13 13 13 13 12 13 13 12 12 13 13 13 13 13 13 14 14 14 14 13 12 11 12 12 11 11 11 11 12 12 13 13 13 13 13 14 14
13 12 12 13 13 13 14 14 14 14 14 14 13 13 13 13 13 13 13 13 13 14 14 14 14 14 13 12 12 12 12 12 12 12 13 12 13 14 13 13 14 13 14
15 14 14 14 15 14 15 15 15 15 15 15 14 14 14 14 14 14 14 13 13 15 15 15 15 14 13 13 12 12 12 12 12 13 13 13 13 13 13 14 15 15 14
16 16 15 15 15 16 16 16 16 16 16 16 15 15 15 15 15 14 14 14 15 16 16 15 15 15 14 13 13 12 13 13 13 13 14 13 14 13 14 15 15 15 15
17 16 15 15 16 17 17 17 17 17 17 16 15 15 15 15 15 15 15 16 16 16 16 16 15 14 14 14 13 14 14 13 13 13 13 13 13 13 13 13 14 15 15
17 17 18 17 17 17 17 17 17 17 17 16 16 15 15 15 16 16 16 16 16 16 16 16 15 15 14 14 14 15 15 14 13 13 12 13 13 13 14 14 14 14 14
18 18 18 18 17 18 18 18 18 18 18 17 18 17 15 16 17 17 17 17 17 17 16 15 15 15 15 15 14 14 14 14 13 13 13 14 14 14 14 14 14 15 15
20 20 20 19 19 18 18 19 19 19 19 18 17 16 16 17 17 18 18 18 17 17 16 16 15 15 15 15 15 14 14 14 14 14 14 15 15 14 14 15 15 16 16
21 20 21 20 19 19 19 19 20 20 19 18 18 17 17 18 18 19 19 18 18 17 17 17 16 16 16 16 15 15 15 15 15 15 15 15 16 16 16 16 17 17 17
21 20 20 19 20 21 21 21 21 21 20 20 20 19 18 19 19 19 19 19 19 19 19 18 18 17 17 17 16 16 16 17 16 16 16 16 16 17 17 17 18 18 18
21 21 21 21 21 22 22 22 22 22 22 22 21 20 19 19 19 19 19 19 19 19 20 20 19 18 19 19 18 17 17 17 16 17 17 17 17 18 18 18 18 19 20
23 22 22 22 22 22 23 23 23 23 22 22 21 21 20 20 20 20 20 20 20 21 20 20 20 19 19 19 18 17 17 17 17 17 17 17 18 18 19 18 19 20 21
22 22 22 22 22 22 22 22 22 23 23 23 22 22 21 20 20 21 21 21 21 21 21 21 21 20 20 19 19 18 18 17 17 17 18 18 18 18 19 19 19 20 22
23 23 23 23 22 22 22 22 22 22 22 22 22 22 21 21 21 22 22 22 22 21 21 21 21 20 20 19 19 19 18 18 17 17 17 17 17 17 18 19 19 20 21
25 25 25 24 23 23 23 22 22 22 22 22 21 22 22 22 22 21 21 22 22 21 21 21 21 20 20 19 19 19 18 18 18 17 17 17 17 18 18 19 19 19 20
26 26 26 25 24 24 23 23 22 23 22 22 22 22 22 22 22 22 22 22 21 22 21 21 21 21 21 20 20 19 19 19 19 18 18 18 19 19 19 19 19 19 19
24 25 26 25 25 25 24 23 23 23 22 22 22 22 22 23 23 23 22 23 23 23 22 22 21 21 21 21 20 20 20 20 20 20 20 20 19 20 20 20 19 19 19
25 26 26 26 25 25 25 25 25 24 23 22 21 22 22 23 23 23 23 23 23 23 23 22 22 21 21 21 21 21 21 21 21 21 22 21 21 20 20 20 19 19 20
26 26 26 26 26 25 26 26 25 25 24 23 22 22 23 22 22 23 23 23 23 23 23 23 22 22 21 21 21 21 21 21 21 22 22 22 21 21 21 21 20 20 20
27 27 27 26 26 26 26 26 26 26 25 25 24 24 23 23 23 23 23 23 23 23 23 23 22 21 21 21 21 21 21 22 22 21 21 21 21 21 22 22 20 20 21
27 28 28 27 26 26 26 26 26 26 25 25 24 24 23 23 23 23 23 23 23 23 23 23 22 22 22 21 21 22 21 21 20 20 20 21 21 22 22 21 21 20 20
29 29 28 27 26 27 27 26 26 25 25 24 23 23 23 23 24 24 24 23 23 24 24 23 22 22 22 22 23 22 21 20 20 20 21 21 21 21 21 21 21 20 20
30 29 28 28 27 27 27 27 26 26 26 25 24 24 25 24 25 24 24 23 23 23 23 23 22 22 22 22 22 22 21 21 20 21 21 21 21 21 20 20 20 20 19
30 30 29 29 28 27 27 27 27 27 27 27 27 26 26 25 25 25 24 23 23 22 22 22 22 22 23 22 22 22 21 21 20 21 20 20 20 20 19 20 19 19 20
30 29 28 28 28 27 27 27 28 28 28 27 26 26 26 26 25 24 24 23 23 23 22 23 23 22 22 22 22 22 21 21 21 19 19 19 19 19 19 19 19 19 19
Wind_Direction
293 290 294 301 304 311 315 316 313 309 308 310 309 309 313 317 320 322 322 323 322 322 324 325 322 318 311 304 300 298 293 288 291 293 288 280 277 276 274 272 269 264 262
287 290 298 301 303 300 304 308 309 307 306 304 302 302 305 310 313 316 318 318 320 322 322 324 321 319 316 309 300 295 291 287 286 290 292 285 279 274 272 269 268 266 263
282 286 295 299 301 296 302 302 301 301 302 303 298 298 303 305 308 312 312 313 317 320 322 321 318 315 312 310 306 296 288 287 285 285 287 286 281 276 272 271 268 266 264
277 284 289 293 295 296 296 297 295 296 296 298 297 295 299 301 302 306 307 309 313 317 318 318 314 310 309 308 306 299 292 290 289 285 284 285 282 277 273 271 271 269 268
276 281 285 289 292 294 295 295 292 294 292 292 293 293 296 297 298 302 307 309 312 314 315 316 315 310 306 304 302 297 293 291 291 288 285 283 279 276 273 272 271 270 268
272 278 284 291 291 293 296 295 294 294 291 290 292 294 293 295 297 300 304 307 310 313 314 315 312 307 303 302 300 298 294 291 289 287 284 280 279 280 276 274 272 271 270
270 279 287 289 289 291 295 295 293 293 294 293 293 293 292 293 295 297 300 304 309 313 311 312 310 307 304 301 298 296 294 292 289 287 287 283 281 280 277 276 275 271 270
273 276 282 287 288 289 291 292 292 291 290 290 288 288 289 290 291 295 299 301 305 307 307 308 307 307 306 302 298 295 290 288 287 287 287 287 284 280 277 275 275 272 269
274 276 280 285 284 287 289 290 290 288 290 289 287 290 290 290 292 296 298 299 301 303 303 303 304 305 305 303 300 295 291 287 288 288 287 285 284 279 276 275 274 273 272
271 277 280 283 283 287 288 288 289 288 288 289 288 288 287 288 290 293 294 297 300 301 301 301 302 302 302 302 300 294 290 288 287 288 288 286 282 280 277 275 273 271 271
270 273 275 276 281 283 284 285 286 287 287 287 287 284 287 286 289 290 291 294 298 299 301 299 300 301 300 299 295 292 290 288 289 289 288 286 284 282 280 277 274 273 271
273 279 280 277 278 280 281 283 284 284 286 287 287 286 287 286 287 287 290 293 295 297 300 300 298 297 298 296 292 292 293 291 290 290 288 287 286 283 281 279 276 273 270
278 281 280 276 277 279 279 281 282 284 284 284 286 287 285 284 284 285 288 291 293 295 297 298 297 296 296 295 291 290 292 292 290 292 291 287 286 284 281 279 278 275 274
277 276 276 276 276 279 280 282 284 286 285 283 282 285 285 281 281 282 284 287 290 291 293 293 295 294 294 293 290 288 288 291 291 291 291 289 287 286 283 280 278 277 276
278 277 277 281 281 281 283 282 284 286 286 283 282 284 285 283 282 281 283 284 286 288 289 289 292 293 293 293 289 287 288 290 291 292 290 290 290 289 286 284 282 280 280
278 281 282 282 283 283 282 280 283 284 285 282 282 283 284 282 284 283 283 283 284 286 287 288 290 291 292 291 289 286 286 288 290 290 290 291 290 290 288 286 286 283 281
277 279 282 283 283 282 280 279 281 283 284 284 282 283 284 283 284 285 283 284 283 284 286 289 290 290 290 291 288 284 284 287 289 290 292 292 292 290 289 288 287 284 281
275 276 278 281 281 280 279 279 281 282 283 283 282 283 283 283 283 283 283 284 286 285 286 287 288 290 289 289 287 285 285 286 288 289 291 292 292 292 290 289 288 285 282
273 273 276 278 279 278 279 280 281 282 283 282 282 283 284 283 282 281 283 283 285 284 285 285 286 287 288 287 286 284 284 285 286 288 289 290 290 291 290 288 287 285 283
274 274 275 276 277 278 279 280 281 282 282 282 282 284 285 283 283 282 283 284 285 286 285 286 287 286 285 284 284 284 284 285 286 287 287 286 287 289 290 289 286 285 284
275 275 275 274 273 275 277 280 281 282 281 280 281 282 283 283 283 284 284 284 286 286 284 286 286 285 283 283 284 284 285 285 286 287 287 287 287 288 289 289 285 284 285
276 276 276 275 273 274 276 278 279 279 280 280 280 281 283 283 282 283 283 283 285 284 284 284 284 283 282 283 284 286 285 285 286 286 288 289 289 290 290 289 286 284 286
274 274 274 273 272 273 275 275 276 275 277 280 279 280 283 283 282 281 281 281 282 282 282 281 282 282 282 283 285 285 284 284 285 285 287 288 288 291 291 291 289 286 286
273 272 271 270 271 272 273 273 274 273 275 277 279 280 282 281 280 279 280 280 281 281 279 279 280 281 281 282 284 284 284 284 285 286 287 287 289 291 291 290 288 288 287
275 273 270 269 270 270 270 270 270 272 275 277 279 280 280 280 279 279 278 278 280 279 277 277 277 279 280 280 281 283 282 283 285 288 287 287 290 290 290 289 289 289 290
273 273 271 270 270 269 269 269 268 270 273 275 278 280 281 281 280 280 278 277 278 278 278 277 277 278 279 278 279 281 281 283 285 288 288 287 289 290 290 289 288 288 288
Height
5890 5889 5889 5888 5887 5886 5885 5884 5883 5881 5880 5878 5877 5876 5874 5873 5871 5869 5868 5866 5864 5862 5860 5858 5857 5854 5853 5852 5851 5850 5849 5848 5848 5847 5847 5846 5846 5845 5844 5843 5842 5841 5841
5887 5887 5886 5886 5884 5883 5883 5881 5880 5879 5877 5876 5875 5873 5872 5870 5869 5867 5866 5864 5862 5860 5858 5856 5854 5852 5850 5849 5848 5846 5846 5845 5845 5844 5843 5843 5843 5841 5840 5839 5838 5837 5836
5884 5884 5884 5883 5882 5880 5879 5878 5877 5876 5875 5874 5872 5871 5870 5868 5866 5865 5863 5861 5859 5857 5855 5853 5851 5849 5847 5846 5844 5843 5842 5842 5841 5840 5840 5839 5838 5837 5837 5836 5835 5834 5834
5880 5880 5880 5880 5879 5877 5876 5875 5874 5873 5872 5870 5869 5868 5867 5865 5864 5862 5861 5859 5857 5855 5852 5850 5848 5846 5844 5842 5841 5839 5838 5838 5837 5836 5835 5835 5834 5833 5833 5832 5831 5831 5830
5876 5876 5876 5875 5875 5874 5873 5872 5871 5869 5868 5866 5865 5864 5863 5862 5861 5859 5858 5856 5854 5852 5849 5847 5845 5843 5841 5839 5838 5836 5835 5834 5833 5832 5831 5830 5829 5829 5829 5828 5828 5827 5826
5871 5870 5871 5871 5871 5870 5869 5868 5867 5865 5863 5862 5861 5860 5859 5858 5857 5856 5854 5852 5850 5848 5846 5844 5842 5840 5838 5836 5834 5833 5831 5830 5829 5828 5827 5826 5825 5824 5824 5824 5823 5823 5822
5867 5867 5867 5867 5867 5867 5865 5864 5862 5861 5860 5858 5857 5856 5855 5854 5854 5852 5851 5849 5846 5844 5842 5840 5838 5836 5834 5832 5831 5829 5827 5826 5825 5824 5823 5822 5821 5820 5820 5819 5819 5819 5819
5863 5863 5863 5863 5863 5862 5861 5859 5858 5857 5855 5854 5852 5851 5851 5850 5849 5848 5846 5845 5843 5841 5839 5837 5835 5833 5830 5828 5827 5825 5823 5822 5821 5820 5819 5818 5817 5816 5816 5815 5815 5815 5815
5859 5858 5858 5858 5858 5857 5856 5855 5854 5853 5851 5850 5848 5847 5846 5846 5845 5843 5842 5840 5839 5837 5835 5833 5831 5829 5826 5824 5822 5820 5819 5818 5817 5816 5815 5814 5813 5812 5811 5811 5811 5811 5810
5854 5854 5854 5853 5853 5852 5851 5850 5849 5848 5847 5846 5844 5843 5842 5841 5840 5839 5838 5836 5834 5833 5831 5829 5827 5824 5822 5820 5818 5817 5815 5814 5813 5811 5810 5809 5808 5807 5807 5806 5806 5805 5805
5848 5848 5848 5848 5848 5847 5846 5845 5844 5843 5842 5841 5838 5837 5837 5836 5835 5834 5833 5832 5830 5828 5826 5824 5822 5820 5817 5815 5813 5812 5811 5809 5808 5807 5805 5804 5804 5803 5802 5801 5801 5800 5800
5842 5842 5842 5842 5841 5841 5840 5840 5839 5838 5837 5836 5834 5832 5832 5831 5830 5829 5828 5827 5825 5823 5821 5819 5817 5815 5813 5810 5809 5807 5806 5804 5803 5802 5800 5799 5799 5798 5797 5796 5795 5795 5794
5836 5836 5836 5836 5836 5835 5835 5834 5833 5832 5831 5830 5829 5828 5826 5825 5824 5823 5822 5821 5819 5818 5816 5814 5812 5809 5807 5804 5803 5802 5801 5799 5798 5797 5796 5794 5793 5792 5791 5790 5789 5788 5788
5829 5830 5830 5830 5830 5829 5828 5827 5826 5826 5825 5824 5823 5822 5820 5819 5818 5817 5816 5815 5814 5812 5810 5808 5806 5804 5801 5799 5797 5796 5795 5794 5793 5792 5791 5790 5788 5787 5785 5784 5783 5782 5782
5823 5823 5823 5823 5823 5822 5821 5821 5820 5819 5818 5817 5816 5815 5814 5812 5811 5811 5810 5809 5808 5806 5804 5802 5800 5798 5796 5794 5793 5791 5790 5789 5788 5787 5786 5784 5783 5782 5780 5779 5777 5776 5775
5816 5816 5816 5816 5816 5815 5815 5814 5813 5812 5811 5810 5809 5808 5807 5806 5805 5804 5803 5802 5801 5800 5798 5796 5794 5793 5791 5789 5788 5786 5785 5784 5783 5782 5780 5779 5778 5776 5774 5773 5771 5770 5769
5810 5810 5809 5809 5809 5808 5807 5807 5806 5805 5804 5803 5802 5801 5801 5800 5799 5798 5797 5796 5795 5793 5791 5790 5788 5787 5785 5784 5782 5781 5780 5778 5777 5776 5775 5773 5772 5770 5768 5767 5765 5764 5763
5803 5803 5802 5802 5802 5801 5800 5800 5799 5798 5797 5796 5796 5795 5794 5793 5792 5791 5790 5789 5788 5787 5785 5784 5782 5781 5779 5778 5776 5775 5774 5773 5771 5770 5769 5768 5766 5764 5762 5761 5759 5758 5756
5795 5795 5795 5795 5794 5794 5793 5793 5792 5791 5790 5789 5789 5788 5787 5786 5785 5784 5783 5782 5781 5780 5779 5777 5776 5775 5773 5772 5770 5769 5768 5766 5765 5764 5762 5761 5760 5758 5756 5754 5753 5752 5750
5788 5788 5788 5787 5787 5786 5786 5785 5784 5784 5783 5782 5781 5780 5779 5778 5778 5777 5776 5775 5774 5773 5772 5771 5769 5768 5767 5765 5764 5762 5761 5760 5759 5757 5756 5754 5753 5751 5749 5748 5746 5745 5744
5781 5780 5780 5779 5779 5779 5778 5778 5777 5776 5776 5775 5774 5773 5772 5771 5770 5770 5769 5768 5767 5766 5765 5764 5762 5761 5760 5759 5757 5756 5755 5754 5752 5751 5749 5748 5746 5744 5742 5740 5739 5738 5737
5773 5773 5772 5772 5771 5771 5770 5770 5769 5769 5768 5768 5767 5766 5765 5764 5763 5762 5762 5761 5760 5759 5758 5757 5755 5754 5753 5752 5751 5750 5748 5747 5746 5744 5743 5741 5739 5737 5735 5733 5732 5731 5730
5765 5764 5763 5763 5763 5763 5762 5762 5762 5761 5760 5760 5759 5759 5758 5757 5756 5755 5755 5754 5753 5752 5751 5750 5749 5748 5747 5745 5744 5743 5742 5740 5739 5738 5736 5734 5732 5730 5728 5727 5725 5724 5723
5757 5756 5755 5754 5754 5754 5754 5754 5754 5753 5753 5753 5752 5752 5751 5750 5749 5748 5747 5746 5745 5744 5743 5743 5742 5741 5740 5739 5738 5736 5735 5734 5732 5731 5729 5728 5726 5724 5722 5720 5718 5717 5716
5747 5746 5746 5745 5745 5745 5745 5745 5745 5745 5745 5745 5744 5743 5742 5742 5741 5740 5739 5739 5738 5737 5736 5736 5735 5734 5733 5732 5731 5729 5728 5727 5726 5724 5723 5721 5719 5717 5715 5714 5712 5711 5710
5739 5738 5737 5736 5736 5736 5737 5737 5737 5737 5737 5737 5737 5736 5735 5734 5733 5732 5731 5730 5730 5730 5729 5728 5727 5726 5726 5724 5724 5723 5722 5721 5720 5718 5717 5715 5713 5711 5710 5708 5707 5706 5704